[[{"header":{"parameterUnit":"m.s-1","parameterCategory":1,"la1":30.2991,"la2":30.254,"lo1":-89.0895,"lo2":-89.0444,"dy":0.0017,"dx":0.0017,"nx":28,"ny":28,"refTime":"2025-12-19T09:00:00:Z","depth":0,"parameterNumber":2,"parameterNumberName":"U-component_of_WINDS"},"data":[0,0,0,0,0,0,0,0,0,0,0,0,0,0,0,0,0,0,0,0,0,0,0,0,0,0,0,0,0,0,0,0,0,0,0,0,0,0,0,0,0,0,0,0,0,0,0,0,0,0,0,0,0,0,0,0,0,0,4.538,4.5381,0,4.5478,4.5479,4.548,4.5432,4.5429,4.5426,4.5424,4.5526,4.5531,4.5536,0,0,0,0,0,0,0,0,0,0,0,0,0,4.5158,4.5162,4.538,4.5381,4.5383,4.5477,4.5479,4.548,4.5432,4.5429,4.5426,4.5423,4.5525,4.5531,4.5537,0,0,0,0,0,0,0,0,0,0,0,0,0,4.5255,4.5163,4.538,4.537,4.537,4.5477,4.5479,4.548,4.5433,4.5429,4.5425,4.5421,4.5523,4.553,4.5537,4.5661,0,0,4.5561,4.5564,0,0,0,0,0,0,0,0,4.5249,4.5263,4.537,4.5371,4.5371,4.5438,4.5438,4.5541,4.5434,4.5409,4.5424,4.542,4.55,4.5509,4.5536,4.5665,4.567,4.5561,4.5566,4.5569,4.5571,0,0,0,0,0,0,0,4.5242,4.5258,4.5419,4.5372,4.5373,4.5362,4.5372,4.5457,4.5475,4.5411,4.5408,4.542,4.55,4.5529,4.5538,4.5671,4.5561,4.5568,4.5573,4.5576,4.591,4.5914,0,0,0,0,0,0,4.5236,4.5253,4.5416,4.5422,4.5299,4.5369,4.538,4.5421,4.5474,4.5478,4.5423,4.5417,4.5518,4.5529,4.5542,4.5691,4.5569,4.5576,4.5581,4.5906,4.5911,4.5916,0,0,0,0,0,0,4.5231,4.5251,4.5412,4.5337,4.5356,4.5377,4.5423,4.5425,4.5454,4.5483,4.5486,4.5449,4.5515,4.5531,4.5632,4.5694,4.558,4.5587,4.5901,4.5908,4.5913,4.599,0,0,0,0,0,0,4.5225,4.5249,4.5295,4.5338,4.536,4.5499,4.5427,4.5429,4.5467,4.546,4.5508,4.5512,4.5513,4.5621,4.564,4.5702,4.5593,4.5895,4.5904,4.5911,4.5982,4.5999,4.6012,0,0,0,0,0,4.5217,4.5312,4.5297,4.5317,4.5418,4.5503,4.5516,4.5514,4.5472,4.5519,4.5538,4.5511,4.5684,4.5632,4.5652,4.5718,4.5891,4.5901,4.5911,4.5975,4.5995,4.6012,0,0,0,0,0,0,4.5276,4.5318,4.5301,4.5413,4.5455,4.5494,4.5553,4.5535,4.559,4.5581,4.5578,4.5589,4.5695,4.5717,4.5657,4.5842,4.5782,4.5796,4.5824,4.5843,4.5858,4.585,4.5599,0,0,0,0,0,4.5302,4.5366,4.54,4.5495,4.5517,4.5532,4.5569,4.5564,4.5608,4.5625,4.5651,4.5696,4.576,4.5803,4.5864,4.5986,4.5997,4.6042,4.6057,4.6069,4.6081,4.6151,4.6172,4.5948,4.5948,4.5947,0,0,4.5356,4.5387,4.5427,4.5508,4.5539,4.5608,4.5547,4.5621,4.5673,4.5637,4.5734,4.5755,4.5805,4.5917,4.5968,4.5939,4.6146,4.6081,4.6091,4.6097,4.6163,4.6184,4.6203,4.5954,4.5953,4.5952,0,0,4.549,4.5519,4.5603,4.5636,4.5685,4.5695,4.5716,4.5759,4.5772,4.587,4.5845,4.5907,4.6018,4.6055,4.6088,4.624,4.6218,4.626,4.6339,4.6407,4.6424,4.644,4.6496,4.6516,4.6273,4.6273,4.6273,0,4.5551,4.5652,4.5648,4.5726,4.5763,4.5734,4.5821,4.5854,4.5921,4.5948,4.5914,4.6054,4.6085,4.6208,4.6245,4.6272,4.6297,4.6254,4.6422,4.6438,4.6452,4.6506,4.6527,4.6278,4.6277,4.6277,4.6276,0,4.5726,4.5797,4.5859,4.5925,4.5969,4.605,4.6061,4.6107,4.61,4.6114,4.6216,4.6253,4.6322,4.6351,4.6344,4.6474,4.6454,4.6421,4.636,4.6478,4.6529,4.6549,4.6285,4.6283,4.6282,4.628,0,0,4.5897,4.5962,4.5985,4.6016,4.607,4.6125,4.6207,4.6274,4.6315,4.6363,4.6433,4.6529,4.65,4.6538,4.6536,4.6595,4.6716,4.6555,4.6556,4.6585,4.6864,4.6889,4.6912,4.6702,4.6706,4.6709,4.686,0,4.6035,4.6177,4.6178,4.6309,4.6377,4.6352,4.6424,4.6466,4.6482,4.6543,4.6562,4.6631,4.6586,4.6609,4.6667,4.6689,4.6772,4.6678,4.6769,4.6772,4.6757,4.6938,4.6964,4.7104,4.688,4.6883,4.6885,0,4.6215,4.6269,4.6408,4.6455,4.6483,4.6547,4.6611,4.6669,4.6717,4.6725,4.677,4.676,4.6845,4.6783,4.6902,4.6838,4.6876,4.6893,4.6898,4.6907,4.6836,4.6952,4.7149,4.717,4.6916,4.6914,4.6911,0,4.6327,4.6436,4.6533,4.656,4.6617,4.6663,4.669,4.6734,4.6776,4.6832,4.686,4.6926,4.6962,4.7015,4.7024,4.6976,4.7145,4.7082,4.7155,4.7155,4.7191,4.7189,4.7397,4.7215,4.7215,4.7214,4.7214,0,4.6482,4.6568,4.6585,4.6645,4.6742,4.6744,4.684,4.6862,4.6903,4.6969,4.6952,4.7014,4.7022,4.7087,4.7095,4.7194,4.721,4.7221,4.7222,4.7223,4.7221,4.7247,4.7238,4.722,4.7219,4.7218,4.7217,0,4.6623,4.6638,4.6743,4.6789,4.6803,4.6873,4.6913,4.6972,4.6988,4.7071,4.7091,4.7117,4.7193,4.7207,4.7297,4.7302,4.7421,4.7412,4.7405,4.7404,4.7477,4.747,4.771,4.7742,4.7538,4.754,4.7541,0,4.6721,4.6786,4.6841,4.6883,4.6912,4.6981,4.7024,4.703,4.7076,4.7138,4.719,4.7264,4.7324,4.7447,4.7475,4.7544,4.7537,4.7617,4.7547,4.7547,4.754,4.7536,4.7544,4.763,4.7632,4.7633,4.7635,0,4.6893,4.6898,4.696,4.7026,4.7078,4.7131,4.718,4.7217,4.723,4.7282,4.736,4.7407,4.7499,4.7574,4.7644,4.7673,4.7658,4.7657,4.7678,4.7679,4.7673,4.7679,4.7441,4.7651,4.7649,4.7648,4.7647,4.7647,4.7016,4.7075,4.7123,4.7194,4.7232,4.728,4.7338,4.7362,4.7427,4.7502,4.7503,4.7589,4.7639,4.7731,4.7765,4.7834,4.7809,4.7839,4.7846,4.7854,4.7862,4.7662,4.7846,4.7846,4.7846,4.7845,4.7845,0,4.7189,4.7219,4.7284,4.7355,4.7412,4.7392,4.7448,4.7497,4.7572,4.762,4.768,4.7771,4.7845,4.788,4.7953,4.8001,4.7996,4.802,4.8017,4.8025,4.7879,4.7854,4.8024,4.8024,4.8023,4.8023,4.8023,4.8023,4.7285,4.7383,4.7395,4.7514,4.7544,4.7628,4.7661,4.7706,4.7745,4.7847,4.7909,4.7931,4.7975,4.8052,4.8119,4.8128,4.8156,4.8184,4.8189,4.8053,4.8034,4.8017,4.7994,4.819,4.819,4.833,4.8331,4.8332]},{"header":{"parameterUnit":"m.s-1","parameterCategory":1,"la1":30.2991,"la2":30.254,"lo1":-89.0895,"lo2":-89.0444,"dy":0.0017,"dx":0.0017,"nx":28,"ny":28,"refTime":"2025-12-19T09:00:00:Z","depth":0,"parameterNumber":3,"parameterNumberName":"V-component_of_WINDS"},"data":[0,0,0,0,0,0,0,0,0,0,0,0,0,0,0,0,0,0,0,0,0,0,0,0,0,0,0,0,0,0,0,0,0,0,0,0,0,0,0,0,0,0,0,0,0,0,0,0,0,0,0,0,0,0,0,0,0,0,-0.8458,-0.8456,0,-0.8254,-0.8252,-0.8249,-0.8235,-0.8237,-0.8239,-0.8241,-0.8027,-0.802,-0.8012,0,0,0,0,0,0,0,0,0,0,0,0,0,-0.883,-0.8824,-0.8458,-0.8455,-0.8453,-0.8254,-0.8252,-0.8249,-0.8234,-0.8237,-0.824,-0.8242,-0.803,-0.8021,-0.8011,0,0,0,0,0,0,0,0,0,0,0,0,0,-0.8652,-0.8821,-0.8458,-0.8422,-0.8417,-0.8255,-0.8251,-0.8248,-0.8234,-0.8237,-0.824,-0.8244,-0.8033,-0.8021,-0.801,-0.7869,0,0,-0.7974,-0.7969,0,0,0,0,0,0,0,0,-0.8662,-0.8638,-0.843,-0.8424,-0.8418,-0.8273,-0.8304,-0.8121,-0.8233,-0.8303,-0.8241,-0.8245,-0.8106,-0.8088,-0.8043,-0.7859,-0.785,-0.7973,-0.7966,-0.7961,-0.7958,0,0,0,0,0,0,0,-0.8674,-0.8647,-0.8377,-0.8427,-0.8419,-0.8414,-0.8393,-0.8269,-0.8188,-0.8297,-0.8296,-0.8272,-0.8103,-0.8054,-0.8037,-0.7847,-0.7973,-0.7963,-0.7956,-0.7951,-0.7538,-0.7534,0,0,0,0,0,0,-0.8694,-0.8657,-0.8384,-0.8371,-0.8551,-0.8405,-0.8381,-0.8316,-0.8189,-0.8173,-0.8269,-0.8272,-0.8072,-0.8051,-0.803,-0.7856,-0.7961,-0.795,-0.7943,-0.7542,-0.7537,-0.7532,0,0,0,0,0,0,-0.8702,-0.867,-0.8392,-0.8513,-0.8478,-0.8395,-0.8323,-0.831,-0.8261,-0.8168,-0.8153,-0.8234,-0.8074,-0.8046,-0.791,-0.7849,-0.7945,-0.7934,-0.7546,-0.754,-0.7535,-0.7508,0,0,0,0,0,0,-0.8713,-0.8673,-0.862,-0.8513,-0.8471,-0.8276,-0.8319,-0.8304,-0.8241,-0.8243,-0.8131,-0.8116,-0.8075,-0.7927,-0.7898,-0.7834,-0.7925,-0.7551,-0.7543,-0.7536,-0.7514,-0.7502,-0.7492,0,0,0,0,0,-0.8726,-0.8619,-0.8617,-0.8584,-0.8403,-0.8273,-0.8249,-0.8206,-0.8237,-0.8181,-0.8122,-0.8119,-0.7861,-0.7913,-0.788,-0.7812,-0.7555,-0.7546,-0.7537,-0.7519,-0.7505,-0.7492,0,0,0,0,0,0,-0.8719,-0.8604,-0.8601,-0.8456,-0.8375,-0.8271,-0.82,-0.8192,-0.8098,-0.8103,-0.8052,-0.8027,-0.7892,-0.7838,-0.7899,-0.7669,-0.7711,-0.7695,-0.7709,-0.7694,-0.7683,-0.7698,-0.7915,0,0,0,0,0,-0.8701,-0.8606,-0.8511,-0.8392,-0.8352,-0.8283,-0.8224,-0.8198,-0.8111,-0.8076,-0.8006,-0.792,-0.782,-0.7754,-0.7656,-0.7507,-0.7482,-0.7444,-0.7433,-0.7425,-0.7411,-0.7327,-0.7309,-0.7503,-0.7503,-0.7504,0,0,-0.8662,-0.8588,-0.853,-0.8389,-0.8323,-0.8224,-0.8254,-0.8148,-0.8074,-0.8059,-0.7926,-0.7872,-0.7773,-0.7629,-0.7563,-0.7581,-0.7352,-0.7413,-0.7407,-0.7397,-0.7316,-0.7298,-0.7281,-0.7497,-0.7498,-0.7499,0,0,-0.854,-0.8475,-0.8369,-0.8303,-0.8203,-0.8158,-0.8133,-0.803,-0.7994,-0.786,-0.7847,-0.7758,-0.7586,-0.7515,-0.7457,-0.731,-0.7304,-0.728,-0.7221,-0.714,-0.7125,-0.7111,-0.7057,-0.7039,-0.7267,-0.7267,-0.7267,0,-0.8503,-0.8356,-0.8315,-0.821,-0.8147,-0.8132,-0.8024,-0.7961,-0.7833,-0.779,-0.7813,-0.7597,-0.7529,-0.7368,-0.7333,-0.7287,-0.7255,-0.7291,-0.7131,-0.7117,-0.7103,-0.7051,-0.7031,-0.7265,-0.7265,-0.7265,-0.7265,0,-0.8315,-0.8213,-0.8139,-0.8019,-0.7948,-0.7842,-0.7784,-0.7717,-0.7698,-0.765,-0.7514,-0.7432,-0.7318,-0.7278,-0.7257,-0.7114,-0.7129,-0.7142,-0.7182,-0.7083,-0.7033,-0.7013,-0.7261,-0.7262,-0.7263,-0.7263,0,0,-0.8181,-0.8041,-0.8014,-0.7959,-0.7849,-0.7768,-0.7661,-0.7551,-0.7494,-0.7407,-0.7315,-0.7171,-0.7183,-0.7117,-0.7088,-0.7017,-0.6905,-0.7039,-0.7036,-0.7016,-0.6741,-0.6731,-0.6709,-0.6901,-0.6897,-0.6894,-0.6749,0,-0.8045,-0.7856,-0.7817,-0.7652,-0.7557,-0.7541,-0.7448,-0.7369,-0.7322,-0.7234,-0.7181,-0.7079,-0.7104,-0.7063,-0.6993,-0.6934,-0.6849,-0.6944,-0.6813,-0.6809,-0.6836,-0.6683,-0.6671,-0.6538,-0.673,-0.6726,-0.6724,0,-0.7862,-0.7772,-0.7599,-0.7502,-0.746,-0.7377,-0.7273,-0.7189,-0.7099,-0.707,-0.6997,-0.6976,-0.6863,-0.6911,-0.6753,-0.6819,-0.6763,-0.6726,-0.672,-0.6704,-0.6759,-0.6661,-0.6494,-0.6474,-0.6693,-0.6696,-0.6698,0,-0.7779,-0.7616,-0.7491,-0.7444,-0.7328,-0.727,-0.7218,-0.7132,-0.7069,-0.6978,-0.6936,-0.6832,-0.6775,-0.6694,-0.6646,-0.6685,-0.6491,-0.6535,-0.6462,-0.6463,-0.642,-0.6423,-0.624,-0.6388,-0.6388,-0.6388,-0.6389,0,-0.7631,-0.7525,-0.7452,-0.7375,-0.7256,-0.7212,-0.7094,-0.7043,-0.6967,-0.6878,-0.6859,-0.6776,-0.6718,-0.6626,-0.6588,-0.6462,-0.6437,-0.6409,-0.6399,-0.6409,-0.6412,-0.637,-0.6377,-0.6383,-0.6384,-0.6385,-0.6386,0,-0.7518,-0.7465,-0.7328,-0.723,-0.7203,-0.7119,-0.7034,-0.6958,-0.6912,-0.68,-0.6771,-0.6698,-0.6589,-0.6534,-0.6398,-0.6372,-0.623,-0.6227,-0.6261,-0.6256,-0.6186,-0.6193,-0.5967,-0.5935,-0.6106,-0.6105,-0.6104,0,-0.7426,-0.7344,-0.7238,-0.7179,-0.7126,-0.703,-0.6966,-0.692,-0.6853,-0.6745,-0.6682,-0.6573,-0.6483,-0.631,-0.6244,-0.6139,-0.6133,-0.6061,-0.6116,-0.6129,-0.6129,-0.6134,-0.6125,-0.605,-0.6049,-0.6047,-0.6046,0,-0.7268,-0.7246,-0.7155,-0.7055,-0.6979,-0.6897,-0.6816,-0.6768,-0.6709,-0.6635,-0.6525,-0.6455,-0.6318,-0.6209,-0.61,-0.6045,-0.6034,-0.603,-0.6007,-0.6015,-0.6037,-0.6023,-0.6232,-0.6035,-0.6036,-0.6037,-0.6037,-0.6038,-0.7161,-0.7088,-0.7002,-0.6901,-0.6836,-0.6761,-0.6685,-0.663,-0.6538,-0.6423,-0.6402,-0.6284,-0.6197,-0.605,-0.5992,-0.5899,-0.5914,-0.5881,-0.5872,-0.5864,-0.586,-0.6055,-0.5879,-0.5879,-0.588,-0.588,-0.588,0,-0.7,-0.6945,-0.6853,-0.6741,-0.6662,-0.6662,-0.6573,-0.6506,-0.6404,-0.6324,-0.6236,-0.6109,-0.6004,-0.5931,-0.5823,-0.5763,-0.5755,-0.5736,-0.5739,-0.5726,-0.5854,-0.5884,-0.5744,-0.5744,-0.5744,-0.5744,-0.5744,-0.5744,-0.6907,-0.6783,-0.6751,-0.6594,-0.6539,-0.6426,-0.6374,-0.6305,-0.6241,-0.6101,-0.6014,-0.5968,-0.589,-0.5777,-0.568,-0.5661,-0.5621,-0.5602,-0.5582,-0.5703,-0.5717,-0.5731,-0.5758,-0.5594,-0.5594,-0.5462,-0.5461,-0.546]}]]